This demonstration page uses our WeatherBlox Daily Observations layout. Learn more.

Left ArrowRight Arrow

39.08367, -84.50855

Hourly Observations for September 13, 2017

Temp ( °F °C ) Dew Point ( °F °C ) Humidity (%) Winds ( mph kmh ) Pressure ( in mb ) Visibility ( mi km ) Precip ( " mm )
12:23 am 00:23 Cloudy with Light Rain 62 16.7 62 16.7 100 100 N 5 7 29.80 1009 7 11 N/A
12:53 am 00:53 Cloudy 63 17.2 62 16.7 97 97 N 3 6 29.79 1009 10 16 N/A
1:53 am 01:53 Cloudy 62 16.7 62 16.7 100 100 N N/A 29.80 1009 10 16 N/A
2:18 am 02:18 Cloudy 62 16.7 62 16.7 100 100 N N/A 29.80 1009 9 14 N/A
2:53 am 02:53 Cloudy 62 16.7 62 16.7 100 100 N N/A 29.79 1009 8 13 N/A
3:53 am 03:53 Cloudy 63 17.2 63 17.2 100 100 N N/A 29.79 1009 8 13 N/A
4:53 am 04:53 Cloudy 63 17.2 63 17.2 100 100 N N/A 29.80 1009 8 13 N/A
5:14 am 05:14 Cloudy 63 17.2 63 17.2 100 100 N N/A 29.80 1009 7 11 N/A
5:53 am 05:53 Cloudy 64 17.8 63 17.2 96 96 N N/A 29.81 1010 10 16 0.01 0.25
6:53 am 06:53 Cloudy with Light Rain 63 17.2 62 16.7 97 97 ESE 3 6 29.82 1010 9 14 0.01 0.25
7:53 am 07:53 Cloudy 64 17.8 62 16.7 93 93 N N/A 29.83 1010 10 16 N/A
8:53 am 08:53 Cloudy 64 17.8 63 17.2 96 96 N N/A 29.83 1010 10 16 N/A
9:53 am 09:53 Cloudy with Light Rain 64 17.8 63 17.2 96 96 S 5 7 29.83 1010 8 13 0.02 0.51
10:53 am 10:53 Cloudy 65 18.3 64 17.8 97 97 N N/A 29.84 1011 10 16 0.01 0.25
11:29 am 11:29 Cloudy with Light Rain 65 18.3 63 17.2 93 93 SE 3 6 29.85 1011 3 5 N/A
11:53 am 11:53 Cloudy with Light Rain 65 18.3 64 17.8 97 97 E 3 6 29.83 1010 5 8 0.01 0.25
12:53 pm 12:53 Cloudy 65 18.3 63 17.2 93 93 SSE 3 6 29.83 1010 10 16 N/A
1:53 pm 13:53 Cloudy 66 18.9 63 17.2 90 90 ESE 3 6 29.81 1010 10 16 N/A
2:14 pm 14:14 Cloudy 66 18.9 62 16.7 87 87 SSE 10 17 29.83 1010 10 16 N/A
2:23 pm 14:23 Cloudy 65 18.3 62 16.7 90 90 SE 12 19 29.80 1009 10 16 N/A
2:53 pm 14:53 Cloudy 66 18.9 62 16.7 87 87 SSE 7 11 29.79 1009 10 16 N/A
3:53 pm 15:53 Cloudy 66 18.9 62 16.7 87 87 SSE 9 15 29.78 1008 10 16 N/A
4:18 pm 16:18 Cloudy with Rain 62 16.7 62 16.7 100 100 SSW 8 13 29.80 1009 3 4 0.07 1.78
4:46 pm 16:46 Cloudy with Light Rain 63 17.2 62 16.7 97 97 SSE 6 9 29.80 1009 3 5 0.11 2.79
4:53 pm 16:53 Cloudy with Light Rain 63 17.2 62 16.7 97 97 SSE 5 7 29.79 1009 9 14 0.11 2.79
5:53 pm 17:53 Cloudy 63 17.2 62 16.7 97 97 S 5 7 29.79 1009 10 16 N/A
6:53 pm 18:53 Cloudy with Light Rain 62 16.7 62 16.7 100 100 S 7 11 29.80 1009 10 16 N/A
7:00 pm 19:00 Cloudy 63 17.2 61 16.1 93 93 S 7 11 29.80 1009 10 16 N/A
7:13 pm 19:13 Cloudy 62 16.7 61 16.1 96 96 S 7 11 29.80 1009 10 16 N/A
7:53 pm 19:53 Cloudy 62 16.7 61 16.1 96 96 S 7 11 29.81 1010 7 11 N/A
8:08 pm 20:08 Cloudy with Light Rain 62 16.7 61 16.1 96 96 S 6 9 29.83 1010 10 16 N/A
8:19 pm 20:19 Cloudy 62 16.7 61 16.1 96 96 S 5 7 29.83 1010 10 16 N/A
8:33 pm 20:33 Cloudy with Light Rain 61 16.1 61 16.1 100 100 S 5 7 29.83 1010 8 13 N/A
8:53 pm 20:53 Cloudy with Light Rain 61 16.1 61 16.1 100 100 S 6 9 29.83 1010 6 10 0.01 0.25
9:53 pm 21:53 Cloudy with Light Rain 61 16.1 61 16.1 100 100 S 7 11 29.84 1010 6 10 N/A
10:53 pm 22:53 Cloudy with Light Rain 61 16.1 61 16.1 100 100 S 5 7 29.84 1011 5 8 0.01 0.25
11:09 pm 23:09 Cloudy with Light Rain 61 16.1 61 16.1 100 100 S 5 7 29.85 1011 6 10 N/A
11:53 pm 23:53 Cloudy 61 16.1 61 16.1 100 100 S 5 7 29.85 1011 10 16 0.01 0.25

Powered by AerisWeather